This is the latest recevied weather packets stored in our database for station/object WA1OUI. If no packets are shown the sender has not sent any weather packets the latest 10 day(s).
| Time | Temp. | Humidity | Pressure | Rain* | Wind** | Luminosity | Snow |
|---|---|---|---|---|---|---|---|
| 1777584479 | 13.33° C | 86% | 1004.4 hPa | 0 mm | - | 41 W/m² | - |
| 1777584176 | 13.89° C | 84% | 1004.3 hPa | 0 mm | - | 34 W/m² | - |
| 1777583875 | 13.89° C | 80% | 1004.2 hPa | 0 mm | - | 58 W/m² | - |
| 1777583571 | 13.89° C | 82% | 1004.3 hPa | 0 mm | - | 87 W/m² | - |
| 1777583270 | 13.33° C | 82% | 1004.3 hPa | 0 mm | - | 168 W/m² | - |
| 1777582970 | 13.33° C | 81% | 1004.1 hPa | 0 mm | - | 174 W/m² | - |
| 1777582668 | 13.33° C | 87% | 1003.9 hPa | 0 mm | - | 102 W/m² | - |
| 1777582363 | 12.78° C | 86% | 1004.1 hPa | 0 mm | - | 89 W/m² | - |
| 1777582061 | 12.78° C | 89% | 1004 hPa | 0 mm | - | 106 W/m² | - |
| 1777581756 | 12.78° C | 91% | 1004 hPa | 0 mm | - | 80 W/m² | - |
| 1777581455 | 12.78° C | 90% | 1004 hPa | 0 mm | - | 63 W/m² | - |
| 1777581150 | 12.78° C | 89% | 1004.1 hPa | 0 mm | - | 65 W/m² | - |
| 1777580845 | 12.78° C | 89% | 1004.2 hPa | 0 mm | - | 52 W/m² | - |
| 1777580540 | 12.78° C | 88% | 1004.1 hPa | 0 mm | - | 61 W/m² | - |
| 1777580236 | 12.78° C | 88% | 1004.2 hPa | 0 mm | - | 76 W/m² | - |
| 1777579934 | 12.78° C | 86% | 1004.1 hPa | 0 mm | - | 63 W/m² | - |
| 1777579628 | 12.78° C | 83% | 1004.1 hPa | 0 mm | - | 95 W/m² | - |
| 1777579327 | 12.78° C | 90% | 1004.4 hPa | 0 mm | - | 99 W/m² | - |
| 1777579023 | 12.78° C | 89% | 1004.1 hPa | 0 mm | - | 62 W/m² | - |
| 1777578718 | 12.78° C | 89% | 1004.1 hPa | 0 mm | - | 67 W/m² | - |
| 1777578418 | 12.78° C | 90% | 1004.3 hPa | 0 mm | - | 66 W/m² | - |
| 1777578113 | 12.78° C | 89% | 1004.3 hPa | 0 mm | - | 77 W/m² | - |
| 1777577810 | 12.78° C | 89% | 1004 hPa | 0 mm | - | 109 W/m² | - |
| 1777577505 | 12.78° C | 89% | 1004.1 hPa | 0 mm | - | 97 W/m² | - |
| 1777577202 | 12.78° C | 91% | 1004.2 hPa | 0 mm | - | 80 W/m² | - |
* Rain latest hour (hover to see other rain measurements)
** Current wind speed in m/s (hover to see current wind gust speed)